When you browse on this site, cookies collect data to enhance your experience and personalize the content and advertising you see.
Visit our Privacy Policy to learn more. By continuing to use the site, you agree to this use of cookies and data.
  • In France
  • List of Countries
  • For 7 days
  • Water Temperature
  • Weather Map
  • Weather Widgets
  • user-avatar
    Login

    Hourly Weather White Plains

    Today, 3 June, Wednesday

    Time Temperature Precipitation Wind Pressure Humidity
    00:00 +17°C° 0.3 mm 3 mps 747 mmHg 70%
    01:00 +17°C° 0 mm 2 mps 747 mmHg 79%
    02:00 +17°C° 0.3 mm 2 mps 746 mmHg 80%
    03:00 +16°C° 0.3 mm 2 mps 745 mmHg 81%
    04:00 +16°C° 0.3 mm 2 mps 745 mmHg 82%
    05:00 +17°C° 0 mm 2 mps 744 mmHg 80%
    06:00 +18°C° 0 mm 2 mps 744 mmHg 78%
    07:00 +19°C° 0 mm 3 mps 744 mmHg 76%
    08:00 +21°C° 0 mm 3 mps 744 mmHg 72%
    09:00 +25°C° 0 mm 3 mps 743 mmHg 69%
    10:00 +27°C° 0 mm 3 mps 743 mmHg 65%
    11:00 +27°C° 0.4 mm 3 mps 743 mmHg 66%
    12:00 +27°C° 0.4 mm 2 mps 743 mmHg 66%
    13:00 +27°C° 0.4 mm 2 mps 742 mmHg 67%
    14:00 +27°C° 0.9 mm 3 mps 742 mmHg 69%
    15:00 +27°C° 0.9 mm 3 mps 742 mmHg 71%
    16:00 +27°C° 0.9 mm 4 mps 742 mmHg 73%
    17:00 +26°C° 0.5 mm 4 mps 743 mmHg 75%
    18:00 +26°C° 0.5 mm 4 mps 743 mmHg 76%
    19:00 +25°C° 0.5 mm 4 mps 743 mmHg 77%
    20:00 +23°C° 0 mm 4 mps 744 mmHg 79%
    21:00 +22°C° 0 mm 4 mps 744 mmHg 81%
    22:00 +22°C° 0 mm 3 mps 745 mmHg 82%
    23:00 +21°C° 0 mm 3 mps 745 mmHg 82%

    Tomorrow, 4 June, Thursday

    Time Temperature Precipitation Wind Pressure Humidity
    00:00 +20°C° 0 mm 3 mps 746 mmHg 82%
    01:00 +20°C° 0 mm 2 mps 746 mmHg 82%
    02:00 +20°C° 0 mm 2 mps 746 mmHg 84%
    03:00 +19°C° 0 mm 3 mps 747 mmHg 85%
    04:00 +19°C° 0 mm 3 mps 747 mmHg 86%
    05:00 +19°C° 0 mm 3 mps 748 mmHg 83%
    06:00 +20°C° 0 mm 3 mps 748 mmHg 80%
    07:00 +21°C° 0 mm 3 mps 749 mmHg 77%
    08:00 +22°C° 0 mm 3 mps 749 mmHg 66%
    09:00 +25°C° 0 mm 3 mps 750 mmHg 56%
    10:00 +27°C° 0 mm 3 mps 750 mmHg 45%
    11:00 +28°C° 0 mm 3 mps 750 mmHg 41%
    12:00 +29°C° 0 mm 3 mps 750 mmHg 36%
    13:00 +30°C° 0 mm 3 mps 750 mmHg 32%
    14:00 +31°C° 0 mm 3 mps 750 mmHg 32%
    15:00 +31°C° 0 mm 3 mps 750 mmHg 33%
    16:00 +31°C° 0 mm 3 mps 750 mmHg 33%
    17:00 +29°C° 0 mm 3 mps 750 mmHg 40%
    18:00 +28°C° 0 mm 3 mps 750 mmHg 47%
    19:00 +26°C° 0 mm 4 mps 750 mmHg 54%
    20:00 +25°C° 0.3 mm 3 mps 751 mmHg 61%
    21:00 +24°C° 0.3 mm 3 mps 751 mmHg 69%
    22:00 +23°C° 0.3 mm 2 mps 751 mmHg 76%
    23:00 +23°C° 0.5 mm 2 mps 751 mmHg 79%

    Day after tomorrow, 5 June, Friday

    Time Temperature Precipitation Wind Pressure Humidity
    00:00 +22°C° 0.5 mm 1 mps 751 mmHg 83%
    01:00 +20°C° 0.5 mm 0 mps 750 mmHg 86%
    02:00 +20°C° 0 mm 0 mps 750 mmHg 86%
    03:00 +19°C° 0 mm 0 mps 751 mmHg 87%
    04:00 +19°C° 0 mm 0 mps 751 mmHg 87%
    05:00 +22°C° 0 mm 1 mps 751 mmHg 85%
    06:00 +23°C° 0 mm 2 mps 752 mmHg 83%
    07:00 +23°C° 0 mm 2 mps 752 mmHg 81%
    08:00 +25°C° 0 mm 3 mps 752 mmHg 74%
    09:00 +26°C° 0 mm 3 mps 752 mmHg 67%
    10:00 +28°C° 0 mm 3 mps 752 mmHg 59%
    11:00 +29°C° 0 mm 4 mps 751 mmHg 56%
    12:00 +30°C° 0 mm 4 mps 751 mmHg 53%
    13:00 +32°C° 0 mm 4 mps 750 mmHg 50%
    14:00 +30°C° 0.1 mm 5 mps 750 mmHg 53%
    15:00 +30°C° 0.1 mm 5 mps 750 mmHg 56%
    16:00 +29°C° 0.1 mm 5 mps 749 mmHg 59%
    17:00 +28°C° 0.3 mm 5 mps 749 mmHg 63%
    18:00 +27°C° 0.3 mm 4 mps 750 mmHg 68%
    19:00 +26°C° 0.3 mm 4 mps 750 mmHg 73%
    20:00 +25°C° 0.5 mm 4 mps 749 mmHg 76%
    21:00 +25°C° 0.5 mm 4 mps 749 mmHg 79%
    22:00 +23°C° 0.5 mm 4 mps 749 mmHg 82%
    23:00 +23°C° 0.2 mm 4 mps 749 mmHg 83%

    6 June, Saturday

    Time Temperature Precipitation Wind Pressure Humidity
    00:00 +23°C° 0.2 mm 4 mps 749 mmHg 83%
    01:00 +23°C° 0.2 mm 4 mps 748 mmHg 84%
    02:00 +22°C° 0.9 mm 3 mps 748 mmHg 86%
    03:00 +22°C° 0.9 mm 3 mps 748 mmHg 88%
    04:00 +22°C° 0.9 mm 3 mps 747 mmHg 89%
    05:00 +24°C° 0.4 mm 3 mps 747 mmHg 87%
    06:00 +24°C° 0.4 mm 3 mps 747 mmHg 85%
    07:00 +25°C° 0.4 mm 3 mps 748 mmHg 83%
    08:00 +27°C° 0 mm 3 mps 747 mmHg 71%
    09:00 +29°C° 0 mm 3 mps 747 mmHg 59%
    10:00 +31°C° 0 mm 2 mps 747 mmHg 47%
    11:00 +31°C° 0.1 mm 3 mps 746 mmHg 48%
    12:00 +31°C° 0.1 mm 3 mps 746 mmHg 49%
    13:00 +33°C° 0.1 mm 4 mps 746 mmHg 50%
    14:00 +30°C° 1.9 mm 4 mps 745 mmHg 58%
    15:00 +28°C° 1.9 mm 4 mps 745 mmHg 65%
    16:00 +26°C° 1.9 mm 4 mps 745 mmHg 72%
    17:00 +26°C° 0.3 mm 4 mps 745 mmHg 71%
    18:00 +26°C° 0.3 mm 3 mps 745 mmHg 69%
    19:00 +25°C° 0.3 mm 3 mps 745 mmHg 67%
    20:00 +24°C° 0.1 mm 3 mps 745 mmHg 65%
    21:00 +22°C° 0.1 mm 3 mps 745 mmHg 63%
    22:00 +21°C° 0.1 mm 3 mps 746 mmHg 62%
    23:00 +20°C° 0 mm 3 mps 746 mmHg 63%

    7 June, Sunday

    Time Temperature Precipitation Wind Pressure Humidity
    00:00 +19°C° 0 mm 4 mps 745 mmHg 65%
    01:00 +19°C° 0 mm 4 mps 745 mmHg 66%
    02:00 +18°C° 0 mm 4 mps 745 mmHg 66%
    03:00 +18°C° 0 mm 4 mps 745 mmHg 66%
    04:00 +16°C° 0 mm 5 mps 745 mmHg 66%
    05:00 +17°C° 0 mm 5 mps 746 mmHg 65%
    06:00 +17°C° 0 mm 5 mps 746 mmHg 63%
    07:00 +19°C° 0 mm 6 mps 746 mmHg 62%
    08:00 +20°C° 0 mm 6 mps 747 mmHg 57%
    09:00 +21°C° 0 mm 6 mps 747 mmHg 52%
    10:00 +23°C° 0 mm 6 mps 747 mmHg 47%
    11:00 +23°C° 0 mm 6 mps 747 mmHg 45%
    12:00 +24°C° 0 mm 6 mps 747 mmHg 43%
    13:00 +26°C° 0 mm 6 mps 747 mmHg 42%
    14:00 +26°C° 0 mm 5 mps 747 mmHg 42%
    15:00 +26°C° 0 mm 5 mps 747 mmHg 42%
    16:00 +26°C° 0 mm 5 mps 748 mmHg 42%
    17:00 +25°C° 0 mm 5 mps 748 mmHg 46%
    18:00 +23°C° 0 mm 4 mps 749 mmHg 51%
    19:00 +22°C° 0 mm 4 mps 749 mmHg 55%
    20:00 +21°C° 0 mm 4 mps 750 mmHg 56%
    21:00 +20°C° 0 mm 5 mps 751 mmHg 57%
    22:00 +19°C° 0 mm 5 mps 751 mmHg 58%
    23:00 +18°C° 0 mm 4 mps 752 mmHg 59%

    8 June, Monday

    Time Temperature Precipitation Wind Pressure Humidity
    00:00 +17°C° 0 mm 4 mps 752 mmHg 61%
    01:00 +17°C° 0 mm 3 mps 752 mmHg 63%
    02:00 +16°C° 0 mm 3 mps 753 mmHg 64%
    03:00 +16°C° 0 mm 3 mps 753 mmHg 66%
    04:00 +14°C° 0 mm 3 mps 753 mmHg 67%
    05:00 +15°C° 0 mm 4 mps 754 mmHg 61%
    06:00 +17°C° 0 mm 4 mps 754 mmHg 56%
    07:00 +18°C° 0 mm 4 mps 755 mmHg 50%
    08:00 +19°C° 0 mm 4 mps 755 mmHg 44%
    09:00 +21°C° 0 mm 4 mps 755 mmHg 39%
    10:00 +22°C° 0 mm 3 mps 755 mmHg 34%
    11:00 +24°C° 0 mm 3 mps 755 mmHg 31%
    12:00 +25°C° 0 mm 2 mps 755 mmHg 28%
    13:00 +27°C° 0 mm 2 mps 755 mmHg 25%
    14:00 +27°C° 0 mm 2 mps 755 mmHg 25%
    15:00 +27°C° 0 mm 2 mps 754 mmHg 25%
    16:00 +27°C° 0 mm 2 mps 754 mmHg 25%
    17:00 +26°C° 0 mm 2 mps 754 mmHg 31%
    18:00 +25°C° 0 mm 1 mps 754 mmHg 36%
    19:00 +23°C° 0 mm 1 mps 754 mmHg 42%
    20:00 +22°C° 0 mm 1 mps 755 mmHg 45%
    21:00 +21°C° 0 mm 1 mps 755 mmHg 48%
    22:00 +19°C° 0 mm 2 mps 755 mmHg 51%
    23:00 +18°C° 0 mm 2 mps 755 mmHg 54%
    Show more